Regional Weather Roundup
Issued by NWS Little Rock, AR

Home | Current Version | Previous Version | Graphics & Text | Print | Product List | Glossary On
Versions: 1 2 3 4 5 6 7 8 9 10 11 12 13 14 15 16 17 18 19 20 21 22 23 24 25 26 27
000
ASUS44 KLZK 240605
RWRLZK

WEATHER ROUNDUP FOR ARKANSAS
NATIONAL WEATHER SERVICE LITTLE ROCK AR
100 AM CDT TUE MAY 24 2016

NOTE: "FAIR" INDICATES FEW OR NO CLOUDS BELOW 12,000 FEET WITH NO
SIGNIFICANT WEATHER AND/OR OBSTRUCTIONS TO VISIBILITY.

ARZ001-003-010-029-240700-
NORTHWEST ARKANSAS

CITY           SKY/WX    TMP DP  RH WIND       PRES   REMARKS
FAYETTEVILLE   CLOUDY    60  60 100 CALM      29.96R
6HR MIN TEMP:  57; 6HR MAX TEMP:  66;

FORT SMITH     CLOUDY    68  64  87 NE5       29.93R
6HR MIN TEMP:  67; 6HR MAX TEMP:  75;

HARRISON       PTCLDY    62  60  93 CALM      29.97R
6HR MIN TEMP:  61; 6HR MAX TEMP:  69;

BENTONVILLE    MOCLDY    64  59  82 CALM      29.97R
6HR MIN TEMP:  63; 6HR MAX TEMP:  64;

ROGERS           N/A     64  62  93 S8        29.97R
6HR MIN TEMP:  62; 6HR MAX TEMP:  64;

SILOAM SPGS    CLOUDY    63  55  77 SE5       29.96S
6HR MIN TEMP:  63; 6HR MAX TEMP:  64;

HIGHFILL       CLOUDY    64  63  96 S3        29.96R
6HR MIN TEMP:  62; 6HR MAX TEMP:  65;

$$

ARZ004-005-016-240700-
NORTH CENTRAL ARKANSAS

CITY           SKY/WX    TMP DP  RH WIND       PRES   REMARKS
BATESVILLE     MOCLDY    66  57  72 SE3       29.96S
6HR MIN TEMP:  64; 6HR MAX TEMP:  79;

FLIPPIN        MOCLDY   N/A N/A N/A CALM      29.93R
MTN HOME       PTCLDY    63  59  87 E3        29.95R
6HR MIN TEMP:  61; 6HR MAX TEMP:  70; 6HR PCP: TRACE;

$$

ARZ040-041-240700-
WEST CENTRAL ARKANSAS

CITY           SKY/WX    TMP DP  RH WIND       PRES   REMARKS
MENA           CLEAR     68  68 100 CALM      29.97R
MOUNT IDA      CLEAR     67  63  87 CALM      29.94R
6HR MIN TEMP:  67; 6HR MAX TEMP:  76;

$$

ARZ009-017-025-026-028-240700-
NORTHEAST ARKANSAS

CITY           SKY/WX    TMP DP  RH WIND       PRES   REMARKS
CORNING          N/A     68  57  68 CALM      29.98S
JONESBORO      PTCLDY    64  56  75 CALM      29.96S
6HR MIN TEMP:  64; 6HR MAX TEMP:  82;

NEWPORT        CLEAR     69  57  65 S3        29.97R
6HR MIN TEMP:  69; 6HR MAX TEMP:  82; 6HR PCP: TRACE;

WALNUT RIDGE   PTCLDY    68  54  60 SE3       29.97S
6HR MIN TEMP:  68; 6HR MAX TEMP:  81;

BLYTHEVILLE    PTCLDY    70  54  56 S6        29.99R
6HR MIN TEMP:  69; 6HR MAX TEMP:  81;

$$

ARZ022-023-033-042-044-240700-
CENTRAL ARKANSAS

CITY           SKY/WX    TMP DP  RH WIND       PRES   REMARKS
LITTLE ROCK    PTCLDY    69  60  73 S3        29.96R
6HR MIN TEMP:  66; 6HR MAX TEMP:  80;

JACKSONVILLE   PTCLDY    65  62  91 CALM      29.95R
6HR MIN TEMP:  64; 6HR MAX TEMP:  78; 6HR PCP: TRACE;

SEARCY         PTCLDY    63  61  93 CALM      29.97S
6HR MIN TEMP:  63; 6HR MAX TEMP:  75; 6HR PCP: TRACE;

HOT SPRINGS    PTCLDY    67  61  81 E3        29.96S
6HR MIN TEMP:  66; 6HR MAX TEMP:  80;

RUSSELLVILLE   CLEAR     64  62  93 CALM      29.95R
6HR MIN TEMP:  64; 6HR MAX TEMP:  76;

CLINTON        FAIR      61  61 100 CALM      29.97S
$$

ARZ036-240700-
EAST ARKANSAS

CITY           SKY/WX    TMP DP  RH WIND       PRES   REMARKS
WEST MEMPHIS   PTCLDY    65  54  67 CALM      29.97S
6HR MIN TEMP:  64; 6HR MAX TEMP:  80;

$$

ARZ050-053-066-070-073-240700-
SOUTHWEST ARKANSAS

CITY           SKY/WX    TMP DP  RH WIND       PRES   REMARKS
ARKADELPHIA    FAIR      68  68 100 CALM      29.96S
6HR MIN TEMP:  67; 6HR MAX TEMP:  83;

CAMDEN         CLEAR     68  59  73 S3        29.94R
TEXARKANA      CLEAR     73  64  73 S9        29.93S
6HR MIN TEMP:  70; 6HR MAX TEMP:  81;

EL DORADO      CLEAR     69  64  84 SE6       29.94F
6HR MIN TEMP:  67; 6HR MAX TEMP:  80;

DE QUEEN       CLOUDY    71  66  84 CALM      29.92R
6HR MIN TEMP:  71; 6HR MAX TEMP:  80;

$$

ARZ056-057-069-240700-
SOUTHEAST ARKANSAS

CITY           SKY/WX    TMP DP  RH WIND       PRES   REMARKS
PINE BLUFF     CLEAR     68  61  78 SW6       29.96R
6HR MIN TEMP:  65; 6HR MAX TEMP:  79;

STUTTGART      MOCLDY    70  57  64 SE7       29.95F
6HR MIN TEMP:  70; 6HR MAX TEMP:  82;

MONTICELLO     CLEAR     68  58  70 SE7       29.94F
6HR MIN TEMP:  68; 6HR MAX TEMP:  83;


$$






USA.gov is the U.S. government's official web portal to all federal, state and local government web resources and services.